Fairfield, NJ

10:19 PM EST on February 21, 2017 (GMT -0500)
Essex County

Weather History for KCDW - November, 2011

Change the Weather History Date:

Wednesday, November 23, 2011

  Actual Average Record
Temperature  
Mean Temperature 44 °F -  
Max Temperature 48 °F 47 °F 68 °F (1960)
Min Temperature 35 °F 30 °F 14 °F (1972)
Degree Days  
Heating Degree Days 22    
Moisture  
Dew Point 43 °F    
Average Humidity 93    
Maximum Humidity 100    
Minimum Humidity 76    
Precipitation  
Precipitation 0.57 in - - ()
Sea Level Pressure  
Sea Level Pressure 29.74 in    
Wind  
Wind Speed 5 mph (NNE)    
Max Wind Speed 8 mph    
Max Gust Speed 18 mph    
Visibility 8 miles    
Events Rain    
Averages and records for this station are not official NWS values.
T = Trace of Precipitation, MM = Missing Value Source: NWS Daily Summary

Daily Weather History Graph

Daily Weather History Graph

Search for Another Location

Airport or City:

Trip Planner

Search our weather history database for the weather conditions in past years. The results will help you decide how hot, cold, wet, or windy it might be!

Date:

Astronomy

Nov. 23, 2011 Rise Set
Actual Time 6:53 AM EST 4:33 PM EST
Civil Twilight 6:23 AM EST 5:03 PM EST
Nautical Twilight 5:49 AM EST 5:36 PM EST
Astronomical Twilight 5:16 AM EST 6:09 PM EST
Moon 4:54 AM EST (11/23) 3:13 PM EST (11/23)
Length of Visible Light 10h 40m
Length of Day
9h 40m
Waning Crescent, 4% of the Moon is Illuminated
Nov 23
Waning Crescent
Nov 25
New
Dec 2
First Quarter
Dec 10
Full
Dec 17
Last Quarter

Hourly Weather History & Observations

Time (EST) Temp. Windchill Dew Point Humidity Pressure Visibility Wind Dir Wind Speed Gust Speed Precip Events Conditions
12:53 AM 46.0 °F 42.5 °F 46.0 °F 100% 29.92 in 8.0 mi East 6.9 mph - 0.11 in Rain Light Rain
1:53 AM 46.0 °F 41.9 °F 46.0 °F 100% 29.86 in 4.0 mi NE 8.1 mph - 0.09 in Rain Rain
2:03 AM 46.4 °F 45.2 °F 46.4 °F 100% 29.84 in 2.0 mi Variable 3.5 mph - 0.09 in Rain Heavy Rain
2:23 AM 46.4 °F 44.3 °F 46.4 °F 100% 29.81 in 4.0 mi ENE 4.6 mph - 0.16 in Rain Light Rain
2:53 AM 46.0 °F 44.8 °F 46.0 °F 100% 29.79 in 2.5 mi Variable 3.5 mph - 0.20 in Rain Light Rain
3:02 AM 46.4 °F 42.4 °F 46.4 °F 100% 29.76 in 3.0 mi NE 8.1 mph - 0.01 in Rain Light Rain
4:15 AM 46.4 °F 44.3 °F 46.4 °F 100% 29.68 in 7.0 mi East 4.6 mph - 0.02 in Rain Light Rain
4:24 AM 48.2 °F - 46.4 °F 93% 29.67 in 7.0 mi ENE 4.6 mph - 0.02 in Rain Light Rain
4:46 AM 48.2 °F - 48.2 °F 100% 29.68 in 2.5 mi NW 4.6 mph - 0.10 in Rain Light Rain
4:53 AM 46.9 °F - 46.9 °F 100% 29.71 in 4.0 mi NNW 6.9 mph - 0.11 in Rain Light Rain
5:19 AM 48.2 °F - 46.4 °F 93% 29.69 in 10.0 mi ENE 3.5 mph - 0.01 in Rain Light Rain
5:53 AM 48.0 °F - 46.9 °F 96% 29.68 in 10.0 mi Calm Calm - 0.01 in Rain Light Rain
6:03 AM 48.2 °F - 46.4 °F 93% 29.65 in 10.0 mi ENE 5.8 mph - 0.00 in Rain Light Rain
6:24 AM 48.2 °F - 46.4 °F 93% 29.64 in 8.0 mi Calm Calm - 0.02 in Rain Light Rain
6:34 AM 46.4 °F - 46.4 °F 100% 29.65 in 8.0 mi Calm Calm - 0.03 in Rain Light Rain
6:41 AM 46.4 °F 44.3 °F 46.4 °F 100% 29.65 in 9.0 mi North 4.6 mph - 0.03 in Rain Light Rain
7:53 AM 45.0 °F 41.2 °F 44.1 °F 97% 29.66 in 10.0 mi NNE 6.9 mph - 0.01 in   Overcast
8:53 AM 45.0 °F 43.5 °F 44.1 °F 97% 29.67 in 10.0 mi Variable 3.5 mph - 0.00 in   Overcast
9:53 AM 45.0 °F 43.5 °F 44.1 °F 97% 29.65 in 10.0 mi NNE 3.5 mph - N/A   Overcast
10:53 AM 46.0 °F - 44.1 °F 93% 29.63 in 10.0 mi Calm Calm - N/A   Overcast
11:41 AM 44.6 °F 41.4 °F 44.6 °F 100% 29.60 in 2.5 mi Variable 5.8 mph - 0.03 in Rain Light Rain
11:49 AM 44.6 °F 41.4 °F 44.6 °F 100% 29.60 in 3.0 mi NNE 5.8 mph - 0.04 in Rain Light Rain
11:53 AM 44.1 °F 41.5 °F 44.1 °F 100% 29.62 in 3.0 mi Variable 4.6 mph - 0.04 in Rain Light Rain
12:06 PM 44.6 °F 40.7 °F 44.6 °F 100% 29.60 in 10.0 mi NNE 6.9 mph - 0.00 in Rain Light Rain
12:25 PM 44.6 °F 41.4 °F 42.8 °F 93% 29.59 in 10.0 mi Variable 5.8 mph - 0.00 in   Overcast
12:53 PM 45.0 °F 40.6 °F 43.0 °F 93% 29.62 in 10.0 mi NNE 8.1 mph - 0.00 in Rain Light Rain
1:01 PM 44.6 °F 41.4 °F 44.6 °F 100% 29.61 in 10.0 mi Variable 5.8 mph - 0.00 in Rain Light Rain
1:41 PM 44.6 °F 40.7 °F 42.8 °F 93% 29.64 in 10.0 mi NNE 6.9 mph - 0.00 in   Overcast
1:53 PM 44.1 °F 41.5 °F 41.0 °F 89% 29.66 in 10.0 mi NNE 4.6 mph - 0.00 in   Overcast
3:53 PM 44.1 °F 39.5 °F 39.9 °F 85% 29.74 in 10.0 mi NNE 8.1 mph - N/A   Overcast
4:53 PM 44.1 °F 39.5 °F 39.9 °F 85% 29.80 in 10.0 mi NNE 8.1 mph - N/A   Overcast
5:53 PM 44.1 °F 40.1 °F 37.9 °F 79% 29.84 in 10.0 mi North 6.9 mph - N/A   Overcast
6:53 PM 43.0 °F 40.3 °F 36.0 °F 76% 29.89 in 10.0 mi Variable 4.6 mph 18.4 mph N/A   Overcast
7:45 PM 41.0 °F 36.4 °F 33.8 °F 76% 29.91 in 10.0 mi NNE 6.9 mph - N/A   Overcast
7:53 PM 41.0 °F 36.4 °F 34.0 °F 76% 29.94 in 10.0 mi NNE 6.9 mph - N/A   Overcast
8:53 PM 39.9 °F - 33.1 °F 77% 29.97 in 10.0 mi Calm Calm - N/A   Mostly Cloudy
10:53 PM 39.0 °F - 33.1 °F 79% 30.01 in 10.0 mi Calm Calm - N/A   Partly Cloudy
11:53 PM 35.1 °F - 33.1 °F 92% 30.03 in 10.0 mi Calm Calm - N/A   Clear